SP6FIG-13 Weather Reports


time (UTC)temp
C
wind
direction
speed
KPH
gust
KPH
rain 1hr
cm
rain 24hr
cm
rain mn
cm
humidity
%
barometer
mb
20260905170127 25 0.0 0.0 0.00 0.00 0.00 46 1020.0
20260905165627 25 0.0 0.0 0.00 0.00 0.00 46 1020.0
20260905165127 25 0.0 0.0 0.00 0.00 0.00 46 1019.8
20260905164627 25 0.0 0.0 0.00 0.00 0.00 47 1019.9
20260905164127 25 0.0 0.0 0.00 0.00 0.00 47 1020.0
20260905163627 25 0.0 0.0 0.00 0.00 0.00 46 1019.9
20260905163127 25 0.0 0.0 0.00 0.00 0.00 46 1019.9
20260905162627 25 0.0 0.0 0.00 0.00 0.00 46 1019.8
20260905162127 25 0.0 0.0 0.00 0.00 0.00 45 1019.8
20260905161627 25 0.0 0.0 0.00 0.00 0.00 45 1019.7
20260905161127 25 0.0 0.0 0.00 0.00 0.00 44 1019.5
20260905160627 25 0.0 0.0 0.00 0.00 0.00 45 1019.9
20260905160127 25 0.0 0.0 0.00 0.00 0.00 45 1019.5
20260905155627 25 0.0 0.0 0.00 0.00 0.00 44 1019.5
20260905155127 25 0.0 0.0 0.00 0.00 0.00 45 1019.3
20260905154627 25 0.0 0.0 0.00 0.00 0.00 44 1019.3
20260905154127 25 0.0 0.0 0.00 0.00 0.00 43 1019.5
20260905153627 25 0.0 0.0 0.00 0.00 0.00 43 1019.5
20260905153127 25 0.0 0.0 0.00 0.00 0.00 43 1019.6
20260905152627 25 0.0 0.0 0.00 0.00 0.00 43 1019.3
20260905152127 25 0.0 0.0 0.00 0.00 0.00 42 1019.0
20260905151627 25 0.0 0.0 0.00 0.00 0.00 42 1019.1
20260905151127 25 0.0 0.0 0.00 0.00 0.00 42 1019.3
20260905150647 25 0.0 0.0 0.00 0.00 0.00 39 1019.9
20260905150127 25 0.0 0.0 0.00 0.00 0.00 40 1019.2
20260905145627 25 0.0 0.0 0.00 0.00 0.00 39 1019.5
20260905145127 25 0.0 0.0 0.00 0.00 0.00 40 1018.9
20260905144627 25 0.0 0.0 0.00 0.00 0.00 38 1018.6
20260905144127 25 0.0 0.0 0.00 0.00 0.00 41 1019.4
20260905143627 25 0.0 0.0 0.00 0.00 0.00 40 1019.3
20260905143127 25 0.0 0.0 0.00 0.00 0.00 39 1019.1
20260905142627 25 0.0 0.0 0.00 0.00 0.00 40 1018.8
20260905142127 24 0.0 0.0 0.00 0.00 0.00 41 1019.4
20260905141627 24 0.0 0.0 0.00 0.00 0.00 42 1019.1
20260905141127 24 0.0 0.0 0.00 0.00 0.00 42 1018.3
20260905140627 23 0.0 0.0 0.00 0.00 0.00 41 1019.3
20260905140127 23 0.0 0.0 0.00 0.00 0.00 41 1019.2
20260905135627 23 0.0 0.0 0.00 0.00 0.00 41 1019.2
20260905135127 23 0.0 0.0 0.00 0.00 0.00 40 1019.2
20260905134627 23 0.0 0.0 0.00 0.00 0.00 39 1019.5
20260905134127 23 0.0 0.0 0.00 0.00 0.00 39 1019.1
20260905133627 23 0.0 0.0 0.00 0.00 0.00 40 1019.1
20260905133127 23 0.0 0.0 0.00 0.00 0.00 40 1019.5
20260905132627 24 0.0 0.0 0.00 0.00 0.00 40 1019.0
20260905132127 24 0.0 0.0 0.00 0.00 0.00 38 1019.1
20260905131627 24 0.0 0.0 0.00 0.00 0.00 40 1019.1
20260905131127 23 0.0 0.0 0.00 0.00 0.00 43 1019.5
20260905130627 24 0.0 0.0 0.00 0.00 0.00 41 1018.9
20260905130127 23 0.0 0.0 0.00 0.00 0.00 38 1019.1
20260905125627 23 0.0 0.0 0.00 0.00 0.00 38 1019.4
20260905125127 23 0.0 0.0 0.00 0.00 0.00 42 1019.1
20260905124627 23 0.0 0.0 0.00 0.00 0.00 41 1019.2
20260905124127 23 0.0 0.0 0.00 0.00 0.00 40 1019.3
20260905123627 23 0.0 0.0 0.00 0.00 0.00 41 1019.4
20260905123127 23 0.0 0.0 0.00 0.00 0.00 40 1019.1
20260905122627 23 0.0 0.0 0.00 0.00 0.00 42 1018.8
20260905122127 23 0.0 0.0 0.00 0.00 0.00 38 1019.7
20260905121627 23 0.0 0.0 0.00 0.00 0.00 38 1020.1
20260905121127 23 0.0 0.0 0.00 0.00 0.00 38 1019.5
20260905120627 23 0.0 0.0 0.00 0.00 0.00 39 1019.8
20260905120127 23 0.0 0.0 0.00 0.00 0.00 38 1020.2
20260905115627 24 0.0 0.0 0.00 0.00 0.00 39 1019.0
20260905115127 23 0.0 0.0 0.00 0.00 0.00 39 1019.7
20260905114627 23 0.0 0.0 0.00 0.00 0.00 39 1019.6
20260905114127 23 0.0 0.0 0.00 0.00 0.00 39 1019.2
20260905113627 23 0.0 0.0 0.00 0.00 0.00 40 1019.8
20260905113127 23 0.0 0.0 0.00 0.00 0.00 43 1019.8
20260905112627 23 0.0 0.0 0.00 0.00 0.00 44 1019.5
20260905112127 23 0.0 0.0 0.00 0.00 0.00 44 1019.4
20260905111627 23 0.0 0.0 0.00 0.00 0.00 45 1019.6
20260905111127 23 0.0 0.0 0.00 0.00 0.00 42 1019.3
20260905110637 23 0.0 0.0 0.00 0.00 0.00 40 1019.8
20260905110127 23 0.0 0.0 0.00 0.00 0.00 40 1019.8
20260905105630 23 0.0 0.0 0.00 0.00 0.00 43 1019.6
20260905105127 23 0.0 0.0 0.00 0.00 0.00 40 1019.3
20260905104627 23 0.0 0.0 0.00 0.00 0.00 40 1019.5
20260905104137 23 0.0 0.0 0.00 0.00 0.00 40 1019.7
20260905103627 23 0.0 0.0 0.00 0.00 0.00 41 1019.5
20260905103127 23 0.0 0.0 0.00 0.00 0.00 42 1019.4
20260905102627 23 0.0 0.0 0.00 0.00 0.00 41 1019.1
20260905102127 23 0.0 0.0 0.00 0.00 0.00 41 1019.4
20260905101627 23 0.0 0.0 0.00 0.00 0.00 42 1019.3
20260905101127 23 0.0 0.0 0.00 0.00 0.00 42 1019.2
20260905100627 23 0.0 0.0 0.00 0.00 0.00 42 1019.2
20260905100127 23 0.0 0.0 0.00 0.00 0.00 41 1019.3
20260905095627 23 0.0 0.0 0.00 0.00 0.00 42 1019.5
20260905095127 23 0.0 0.0 0.00 0.00 0.00 42 1019.5
20260905094627 23 0.0 0.0 0.00 0.00 0.00 42 1019.5
20260905094127 23 0.0 0.0 0.00 0.00 0.00 42 1019.4
20260905093627 23 0.0 0.0 0.00 0.00 0.00 43 1019.5
20260905093127 23 0.0 0.0 0.00 0.00 0.00 43 1019.6
20260905092627 23 0.0 0.0 0.00 0.00 0.00 43 1019.6
20260905092127 23 0.0 0.0 0.00 0.00 0.00 43 1019.3
20260905091627 23 0.0 0.0 0.00 0.00 0.00 43 1019.4
20260905091127 23 0.0 0.0 0.00 0.00 0.00 43 1019.4
20260905090627 23 0.0 0.0 0.00 0.00 0.00 44 1019.6
20260905090127 23 0.0 0.0 0.00 0.00 0.00 44 1019.5
20260905085627 23 0.0 0.0 0.00 0.00 0.00 44 1019.1
20260905085127 23 0.0 0.0 0.00 0.00 0.00 44 1019.4
20260905084627 23 0.0 0.0 0.00 0.00 0.00 44 1019.0
20260905084127 22 0.0 0.0 0.00 0.00 0.00 45 1019.1
20260905083627 22 0.0 0.0 0.00 0.00 0.00 46 1019.4
20260905083127 22 0.0 0.0 0.00 0.00 0.00 46 1019.4
20260905082627 22 0.0 0.0 0.00 0.00 0.00 46 1019.7
20260905082127 22 0.0 0.0 0.00 0.00 0.00 46 1019.3
20260905081627 22 0.0 0.0 0.00 0.00 0.00 46 1019.3
20260905081127 22 0.0 0.0 0.00 0.00 0.00 46 1019.1
20260905080627 22 0.0 0.0 0.00 0.00 0.00 46 1019.1
20260905080127 22 0.0 0.0 0.00 0.00 0.00 46 1019.0
20260905075627 22 0.0 0.0 0.00 0.00 0.00 46 1019.6
20260905075127 22 0.0 0.0 0.00 0.00 0.00 46 1019.1
20260905074627 22 0.0 0.0 0.00 0.00 0.00 47 1019.0
20260905074127 22 0.0 0.0 0.00 0.00 0.00 47 1019.2
20260905073627 22 0.0 0.0 0.00 0.00 0.00 46 1019.4
20260905073127 22 0.0 0.0 0.00 0.00 0.00 46 1019.6
20260905072627 23 0.0 0.0 0.00 0.00 0.00 47 1018.7
20260905072127 23 0.0 0.0 0.00 0.00 0.00 46 1019.2
20260905071627 23 0.0 0.0 0.00 0.00 0.00 46 1019.0
20260905071127 23 0.0 0.0 0.00 0.00 0.00 47 1019.3
20260905070627 23 0.0 0.0 0.00 0.00 0.00 46 1018.8
20260905070127 23 0.0 0.0 0.00 0.00 0.00 46 1018.7
20260905065627 23 0.0 0.0 0.00 0.00 0.00 47 1018.7
20260905065127 23 0.0 0.0 0.00 0.00 0.00 47 1019.0
20260905064627 23 0.0 0.0 0.00 0.00 0.00 47 1018.7
20260905064127 23 0.0 0.0 0.00 0.00 0.00 48 1018.5
20260905063627 23 0.0 0.0 0.00 0.00 0.00 48 1018.5
20260905063128 23 0.0 0.0 0.00 0.00 0.00 48 1018.4
20260905062627 23 0.0 0.0 0.00 0.00 0.00 48 1018.2
20260905062127 23 0.0 0.0 0.00 0.00 0.00 48 1018.5
20260905061627 23 0.0 0.0 0.00 0.00 0.00 48 1018.4
20260905061127 23 0.0 0.0 0.00 0.00 0.00 48 1018.4
20260905060627 23 0.0 0.0 0.00 0.00 0.00 48 1018.3
20260905060126 23 0.0 0.0 0.00 0.00 0.00 48 1018.4
20260905055627 23 0.0 0.0 0.00 0.00 0.00 49 1017.8
20260905055126 23 0.0 0.0 0.00 0.00 0.00 49 1018.1
20260905054627 22 0.0 0.0 0.00 0.00 0.00 49 1017.8
20260905054126 22 0.0 0.0 0.00 0.00 0.00 50 1017.0
20260905053626 22 0.0 0.0 0.00 0.00 0.00 49 1019.4
20260905053127 22 0.0 0.0 0.00 0.00 0.00 50 1017.8
20260905052626 22 0.0 0.0 0.00 0.00 0.00 50 1017.8
20260905052126 22 0.0 0.0 0.00 0.00 0.00 50 1017.9
20260905051627 23 0.0 0.0 0.00 0.00 0.00 50 1017.4
20260905051126 22 0.0 0.0 0.00 0.00 0.00 51 1017.4
20260905050626 22 0.0 0.0 0.00 0.00 0.00 52 1017.2
20260905050126 22 0.0 0.0 0.00 0.00 0.00 51 1017.8
20260905045626 22 0.0 0.0 0.00 0.00 0.00 50 1017.5
20260905045126 22 0.0 0.0 0.00 0.00 0.00 50 1017.9
20260905044626 23 0.0 0.0 0.00 0.00 0.00 49 1017.5
20260905044126 23 0.0 0.0 0.00 0.00 0.00 50 1017.4
20260905043626 23 0.0 0.0 0.00 0.00 0.00 50 1017.9
20260905043126 23 0.0 0.0 0.00 0.00 0.00 50 1016.9
20260905042626 23 0.0 0.0 0.00 0.00 0.00 50 1016.8
20260905042126 23 0.0 0.0 0.00 0.00 0.00 50 1016.8
20260905041626 23 0.0 0.0 0.00 0.00 0.00 50 1016.7
20260905041126 23 0.0 0.0 0.00 0.00 0.00 50 1016.9
20260905040626 23 0.0 0.0 0.00 0.00 0.00 49 1016.7
20260905040126 23 0.0 0.0 0.00 0.00 0.00 50 1016.7
20260905035626 23 0.0 0.0 0.00 0.00 0.00 50 1016.6
20260905035127 23 0.0 0.0 0.00 0.00 0.00 50 1016.5
20260905034626 23 0.0 0.0 0.00 0.00 0.00 50 1016.6
20260905034126 23 0.0 0.0 0.00 0.00 0.00 50 1016.6
20260905033626 23 0.0 0.0 0.00 0.00 0.00 50 1016.6
20260905033126 23 0.0 0.0 0.00 0.00 0.00 50 1016.6
20260905032626 23 0.0 0.0 0.00 0.00 0.00 50 1016.5
20260905032126 23 0.0 0.0 0.00 0.00 0.00 50 1016.3
20260905031626 23 0.0 0.0 0.00 0.00 0.00 50 1016.7
20260905031126 23 0.0 0.0 0.00 0.00 0.00 50 1016.5
20260905030626 23 0.0 0.0 0.00 0.00 0.00 50 1016.2
20260905030126 23 0.0 0.0 0.00 0.00 0.00 50 1016.3
20260905025626 23 0.0 0.0 0.00 0.00 0.00 50 1016.1
20260905025126 23 0.0 0.0 0.00 0.00 0.00 50 1016.1
20260905024626 23 0.0 0.0 0.00 0.00 0.00 50 1016.0
20260905024126 23 0.0 0.0 0.00 0.00 0.00 50 1015.8
20260905023626 23 0.0 0.0 0.00 0.00 0.00 50 1015.7
20260905023126 23 0.0 0.0 0.00 0.00 0.00 50 1015.5
20260905022626 23 0.0 0.0 0.00 0.00 0.00 50 1015.5
20260905022126 23 0.0 0.0 0.00 0.00 0.00 50 1015.5
20260905021626 23 0.0 0.0 0.00 0.00 0.00 51 1015.5
20260905021126 23 0.0 0.0 0.00 0.00 0.00 50 1015.2
20260905020626 23 0.0 0.0 0.00 0.00 0.00 50 1015.1
20260905020126 23 0.0 0.0 0.00 0.00 0.00 50 1014.6
20260905015626 23 0.0 0.0 0.00 0.00 0.00 51 1015.1
20260905015126 23 0.0 0.0 0.00 0.00 0.00 51 1014.9
20260905014626 23 0.0 0.0 0.00 0.00 0.00 51 1015.0
20260905014126 23 0.0 0.0 0.00 0.00 0.00 51 1014.5
20260905013626 23 0.0 0.0 0.00 0.00 0.00 51 1014.9
20260905013126 23 0.0 0.0 0.00 0.00 0.00 51 1015.1
20260905012626 23 0.0 0.0 0.00 0.00 0.00 51 1015.3
20260905012126 23 0.0 0.0 0.00 0.00 0.00 51 1015.2
20260905011626 23 0.0 0.0 0.00 0.00 0.00 51 1015.2
20260905011126 23 0.0 0.0 0.00 0.00 0.00 51 1015.0
20260905010626 23 0.0 0.0 0.00 0.00 0.00 51 1015.2
20260905010126 23 0.0 0.0 0.00 0.00 0.00 51 1015.1
20260905005626 23 0.0 0.0 0.00 0.00 0.00 51 1015.0
20260905005126 23 0.0 0.0 0.00 0.00 0.00 51 1014.8
20260905004626 23 0.0 0.0 0.00 0.00 0.00 52 1014.9
20260905004126 23 0.0 0.0 0.00 0.00 0.00 51 1015.1
20260905003626 23 0.0 0.0 0.00 0.00 0.00 51 1015.3
20260905003126 23 0.0 0.0 0.00 0.00 0.00 51 1015.3
20260905002626 23 0.0 0.0 0.00 0.00 0.00 52 1015.3
20260905002126 23 0.0 0.0 0.00 0.00 0.00 52 1015.3
20260905001626 23 0.0 0.0 0.00 0.00 0.00 52 1015.4
20260905001126 23 0.0 0.0 0.00 0.00 0.00 51 1015.5
20260905000626 23 0.0 0.0 0.00 0.00 0.00 52 1015.3
20260905000126 23 0.0 0.0 0.00 0.00 0.00 52 1015.0
20260904235626 23 0.0 0.0 0.00 0.00 0.00 52 1014.9
20260904235126 23 0.0 0.0 0.00 0.00 0.00 52 1015.1
20260904234626 23 0.0 0.0 0.00 0.00 0.00 52 1014.8
20260904234126 23 0.0 0.0 0.00 0.00 0.00 52 1014.8
20260904233626 23 0.0 0.0 0.00 0.00 0.00 52 1014.1
20260904233126 23 0.0 0.0 0.00 0.00 0.00 52 1014.5
20260904232626 23 0.0 0.0 0.00 0.00 0.00 52 1014.6
20260904232126 23 0.0 0.0 0.00 0.00 0.00 52 1014.5
20260904231626 23 0.0 0.0 0.00 0.00 0.00 51 1014.0
20260904231126 23 0.0 0.0 0.00 0.00 0.00 52 1014.4
20260904230626 23 0.0 0.0 0.00 0.00 0.00 52 1014.4
20260904230126 23 0.0 0.0 0.00 0.00 0.00 52 1014.4
20260904225626 23 0.0 0.0 0.00 0.00 0.00 51 1014.1
20260904225126 23 0.0 0.0 0.00 0.00 0.00 52 1014.0
20260904224626 23 0.0 0.0 0.00 0.00 0.00 51 1013.8
20260904224126 23 0.0 0.0 0.00 0.00 0.00 51 1013.8
20260904223626 23 0.0 0.0 0.00 0.00 0.00 51 1014.0
20260904223126 24 0.0 0.0 0.00 0.00 0.00 51 1014.0
20260904222626 24 0.0 0.0 0.00 0.00 0.00 51 1014.4
20260904222126 24 0.0 0.0 0.00 0.00 0.00 51 1013.8
20260904221626 24 0.0 0.0 0.00 0.00 0.00 51 1013.8
20260904221126 24 0.0 0.0 0.00 0.00 0.00 51 1013.7
20260904220626 24 0.0 0.0 0.00 0.00 0.00 51 1013.8
20260904220126 24 0.0 0.0 0.00 0.00 0.00 51 1013.9
20260904215626 24 0.0 0.0 0.00 0.00 0.00 51 1014.3
20260904215126 24 0.0 0.0 0.00 0.00 0.00 51 1013.8
20260904214626 24 0.0 0.0 0.00 0.00 0.00 51 1014.1
20260904214126 24 0.0 0.0 0.00 0.00 0.00 50 1013.7
20260904213626 24 0.0 0.0 0.00 0.00 0.00 51 1013.5
20260904213126 24 0.0 0.0 0.00 0.00 0.00 51 1013.8
20260904212626 24 0.0 0.0 0.00 0.00 0.00 51 1013.8
20260904212126 24 0.0 0.0 0.00 0.00 0.00 51 1013.7
20260904211626 24 0.0 0.0 0.00 0.00 0.00 51 1013.9
20260904211126 24 0.0 0.0 0.00 0.00 0.00 51 1013.9
20260904210626 24 0.0 0.0 0.00 0.00 0.00 51 1013.9
20260904210136 24 0.0 0.0 0.00 0.00 0.00 50 1013.6
20260904205626 24 0.0 0.0 0.00 0.00 0.00 51 1013.9
20260904205126 24 0.0 0.0 0.00 0.00 0.00 51 1013.8
20260904204626 24 0.0 0.0 0.00 0.00 0.00 51 1013.8
20260904204126 24 0.0 0.0 0.00 0.00 0.00 51 1013.9
20260904203626 24 0.0 0.0 0.00 0.00 0.00 51 1013.9
20260904203126 24 0.0 0.0 0.00 0.00 0.00 51 1013.8
20260904202626 23 0.0 0.0 0.00 0.00 0.00 51 1013.7
20260904202126 23 0.0 0.0 0.00 0.00 0.00 52 1014.2
20260904201626 23 0.0 0.0 0.00 0.00 0.00 51 1013.8
20260904201126 23 0.0 0.0 0.00 0.00 0.00 51 1014.3
20260904200626 23 0.0 0.0 0.00 0.00 0.00 51 1014.2
20260904200126 23 0.0 0.0 0.00 0.00 0.00 51 1014.1
20260904195626 23 0.0 0.0 0.00 0.00 0.00 52 1013.8
20260904195127 23 0.0 0.0 0.00 0.00 0.00 51 1013.7
20260904194626 23 0.0 0.0 0.00 0.00 0.00 50 1013.6
20260904194126 24 0.0 0.0 0.00 0.00 0.00 50 1013.6
20260904193626 24 0.0 0.0 0.00 0.00 0.00 50 1013.4
20260904193126 23 0.0 0.0 0.00 0.00 0.00 50 1013.9
20260904192626 24 0.0 0.0 0.00 0.00 0.00 50 1013.5
20260904192126 23 0.0 0.0 0.00 0.00 0.00 51 1013.3
20260904191626 23 0.0 0.0 0.00 0.00 0.00 51 1013.2
20260904191126 23 0.0 0.0 0.00 0.00 0.00 52 1013.1
20260904190626 23 0.0 0.0 0.00 0.00 0.00 53 1013.1
20260904190126 24 0.0 0.0 0.00 0.00 0.00 53 1012.8
20260904185626 23 0.0 0.0 0.00 0.00 0.00 54 1012.6
20260904185126 24 0.0 0.0 0.00 0.00 0.00 54 1012.7
20260904184626 23 0.0 0.0 0.00 0.00 0.00 54 1012.8
20260904184126 23 0.0 0.0 0.00 0.00 0.00 54 1012.8
20260904183626 24 0.0 0.0 0.00 0.00 0.00 53 1012.4
20260904183126 24 0.0 0.0 0.00 0.00 0.00 52 1012.1
20260904182626 24 0.0 0.0 0.00 0.00 0.00 53 1010.9
20260904182126 24 0.0 0.0 0.00 0.00 0.00 52 1010.9
20260904181626 24 0.0 0.0 0.00 0.00 0.00 52 1010.5
20260904181126 24 0.0 0.0 0.00 0.00 0.00 52 1010.7
20260904180626 24 0.0 0.0 0.00 0.00 0.00 52 1010.7
20260904180126 24 0.0 0.0 0.00 0.00 0.00 51 1010.3
20260904175626 24 0.0 0.0 0.00 0.00 0.00 52 1010.2
20260904174857 23 0.0 0.0 0.00 0.00 0.00 69 813.7
20260904174357 23 0.0 0.0 0.00 0.00 0.00 69 813.7
20260904173857 23 0.0 0.0 0.00 0.00 0.00 69 813.7
20260904173357 23 0.0 0.0 0.00 0.00 0.00 69 813.7
20260904172857 23 0.0 0.0 0.00 0.00 0.00 69 813.7
20260904172357 23 0.0 0.0 0.00 0.00 0.00 69 813.7
20260904171857 23 0.0 0.0 0.00 0.00 0.00 69 813.7
20260904171357 23 0.0 0.0 0.00 0.00 0.00 69 813.7
20260904170857 23 0.0 0.0 0.00 0.00 0.00 69 813.7
20260904170357 23 0.0 0.0 0.00 0.00 0.00 69 813.7